TimeEDT,TemperatureF,Dew PointF,Humidity,Sea Level PressureIn,VisibilityMPH,Wind Direction,Wind SpeedMPH,Gust SpeedMPH,PrecipitationIn,Events,Conditions,WindDirDegrees,DateUTC
12:58 AM,65.1,40.1,40,30.04,10.0,NNW,15.0,-,N/A,,Mostly Cloudy,340,2013-03-26 04:58:00
1:58 AM,63.7,40.3,42,30.03,10.0,NNW,12.7,-,N/A,,Mostly Cloudy,330,2013-03-26 05:58:00
2:58 AM,62.8,38.5,41,30.02,10.0,NNW,16.1,23.0,N/A,,Mostly Cloudy,330,2013-03-26 06:58:00
3:58 AM,60.4,36.3,41,30.03,10.0,NNW,18.4,-,N/A,,Overcast,340,2013-03-26 07:58:00
4:58 AM,58.8,40.3,50,30.04,10.0,NNW,17.3,-,N/A,,Overcast,330,2013-03-26 08:58:00
5:58 AM,57.9,43.0,58,30.04,10.0,NNW,12.7,-,N/A,,Scattered Clouds,340,2013-03-26 09:58:00
6:58 AM,57.4,44.6,62,30.07,10.0,NNW,11.5,-,N/A,,Mostly Cloudy,340,2013-03-26 10:58:00
7:58 AM,57.9,44.4,61,30.08,10.0,North,13.8,-,N/A,,Mostly Cloudy,350,2013-03-26 11:58:00
8:58 AM,58.8,45.7,62,30.10,10.0,North,17.3,-,N/A,,Scattered Clouds,350,2013-03-26 12:58:00
9:58 AM,61.3,45.5,56,30.12,10.0,North,17.3,-,N/A,,Clear,360,2013-03-26 13:58:00
10:58 AM,61.3,42.1,49,30.13,10.0,North,17.3,-,N/A,,Scattered Clouds,350,2013-03-26 14:58:00
11:58 AM,64.9,43.0,45,30.14,10.0,North,12.7,-,N/A,,Clear,360,2013-03-26 15:58:00
12:27 PM,66.2,42.8,43,30.12,10.0,NW,17.3,19.6,N/A,,Clear,320,2013-03-26 16:27:00
12:58 PM,67.8,41.7,39,30.13,10.0,NNW,13.8,-,N/A,,Clear,340,2013-03-26 16:58:00
1:12 PM,68.0,42.8,40,30.11,10.0,North,13.8,-,N/A,,Clear,360,2013-03-26 17:12:00
1:58 PM,68.7,41.0,36,30.11,10.0,NNW,15.0,-,N/A,,Clear,330,2013-03-26 17:58:00
2:58 PM,69.3,35.2,29,30.11,10.0,NNW,15.0,25.3,N/A,,Clear,330,2013-03-26 18:58:00
3:09 PM,69.8,35.6,28,30.09,10.0,NW,12.7,-,N/A,,Clear,320,2013-03-26 19:09:00
3:58 PM,70.5,37.8,30,30.09,10.0,NNW,15.0,21.9,N/A,,Clear,340,2013-03-26 19:58:00
4:05 PM,71.6,33.8,25,30.08,10.0,WNW,13.8,21.9,N/A,,Clear,300,2013-03-26 20:05:00
4:58 PM,70.9,34.2,26,30.09,10.0,NNW,15.0,20.7,N/A,,Clear,330,2013-03-26 20:58:00
5:58 PM,69.4,35.2,28,30.11,10.0,NNW,17.3,21.9,N/A,,Clear,330,2013-03-26 21:58:00
6:58 PM,67.3,37.4,33,30.12,10.0,NW,10.4,-,N/A,,Clear,320,2013-03-26 22:58:00
7:56 PM,64.4,37.4,37,30.13,10.0,NNW,9.2,-,N/A,,Light Drizzle,340,2013-03-26 23:56:00
7:58 PM,63.9,37.8,38,30.15,10.0,NNW,8.1,-,N/A,,Light Drizzle,340,2013-03-26 23:58:00
8:05 PM,62.6,39.2,42,30.14,10.0,NNW,6.9,-,N/A,,Clear,330,2013-03-27 00:05:00
8:58 PM,60.6,41.2,49,30.18,10.0,NW,10.4,-,0.00,,Clear,320,2013-03-27 00:58:00
9:58 PM,58.3,39.0,49,30.21,10.0,NNW,10.4,-,N/A,,Clear,330,2013-03-27 01:58:00
10:58 PM,55.8,34.2,44,30.23,10.0,NNW,12.7,-,N/A,,Clear,330,2013-03-27 02:58:00
11:58 PM,52.9,36.7,54,30.23,10.0,NNW,11.5,-,N/A,,Clear,330,2013-03-27 03:58:00